Regional Weather Roundup
Issued by NWS Raleigh/Durham, NC

Home | Current Version | Previous Version | Text Only | Print | Product List | Glossary On
Versions: 1 2 3 4 5 6 7 8 9 10 11 12 13 14 15 16 17 18 19 20 21 22 23 24 25 26 27 28 29 30 31 32 33 34 35 36 37 38 39 40 41 42 43 44 45 46 47 48 49 50
000
ASUS42 KRAH 241710
RWRRAH
NORTH CAROLINA WEATHER ROUNDUP
NATIONAL WEATHER SERVICE RALEIGH NC
100 PM EDT SUN JUL 24 2016

NOTE: "FAIR" INDICATES FEW OR NO CLOUDS BELOW 12,000 FEET WITH NO
SIGNIFICANT WEATHER AND/OR OBSTRUCTIONS TO VISIBILITY.

NCZ001-053-055-056-065-067-241800-
WESTERN NORTH CAROLINA

CITY           SKY/WX    TMP DP  RH WIND       PRES   REMARKS
ASHEVILLE      SUNNY     86  66  51 MISG      30.14F
JEFFERSON      MOSUNNY   82  63  51 SE3       30.20S
MORGANTON      SUNNY     91  69  48 CALM      30.13S HX  95
HICKORY        SUNNY     90  71  53 CALM      30.07F HX  96
RUTHERFORDTON    N/A     89  73  60 CALM      30.08F HX  97
MOUNT AIRY     SUNNY     93  73  52 S7        30.09S HX 101
BOONE          SUNNY    N/A N/A N/A SW7       30.21S
$$

NCZ021-022-025-041-071-084-088-241800-
CENTRAL NORTH CAROLINA

CITY           SKY/WX    TMP DP  RH WIND       PRES   REMARKS
CHARLOTTE      SUNNY     92  70  48 SW6       30.06S HX  97
GREENSBORO     PTSUNNY   92  69  47 VRB5      30.05S HX  97
WINSTON-SALEM  PTSUNNY   92  71  50 SE7       30.07S HX  98
RALEIGH-DURHAM PTSUNNY   92  74  55 SE6       30.04S HX 101
FORT BRAGG     SUNNY     92  73  54 VRB5      30.03S HX 100
FAYETTEVILLE   SUNNY     93  71  48 SW7       30.03S HX 100
BURLINGTON     MOSUNNY   92  73  53 SE5       30.04S HX 100
LAURINBURG     SUNNY     93  73  52 W7        30.04F HX 102
$$

NCZ011-015-027-028-043-044-047-080-103-241800-
NORTHEASTERN NORTH CAROLINA

CITY           SKY/WX    TMP DP  RH WIND       PRES   REMARKS
ROCKY MT-WILSO SUNNY     92  76  59 W6        30.03S HX 104
GREENVILLE     SUNNY     91  79  66 SW6       30.04F HX 107
WASHINGTON     MOSUNNY   91  77  62 SW9       30.03S HX 104
ELIZABETH CITY SUNNY     93  74  53 SW12      30.01R HX 103
MANTEO           N/A     89  80  75 S7        30.02S HX 106
CAPE HATTERAS  SUNNY     88  79  74 VRB6      30.04S HX 103
$$

NCZ078-087-090-091-093-098-101-241800-
SOUTHEASTERN NORTH CAROLINA

CITY           SKY/WX    TMP DP  RH WIND       PRES   REMARKS
LUMBERTON      SUNNY     91  76  61 VRB5      30.03S HX 103
GOLDSBORO      MOSUNNY   93  74  55 VRB6      30.02S HX 103
KINSTON        MOSUNNY   93  73  52 SW6       30.04S HX 102
KENANSVILLE    NOT AVBL
NEW BERN       MOSUNNY   90  76  63 SW5       30.04S HX 101
CHERRY POINT   MOSUNNY   92  77  61 SW9       30.04S HX 105
BEAUFORT       MOSUNNY   88  77  69 SW14      30.04S HX 100
JACKSONVILLE   MOSUNNY   92  76  59 VRB3      30.03S HX 104
WILMINGTON     PTSUNNY   90  76  63 VRB3      30.03F HX 101
$$




USA.gov is the U.S. government's official web portal to all federal, state and local government web resources and services.